Terminal Aerodrome Forecast
Issued by NWS New Orleans/Baton Rouge, LA

Home | Current Version | Previous Version | Text Only | Print | Product List | Glossary On
Versions: 1 2 3 4 5 6 7 8 9 10 11 12
000
FTUS44 KLIX 280500
TAFBTR
TAF
KBTR 280532Z 2806/2906 05005KT P6SM SKC
     FM281500 11005KT P6SM SKC
     FM290300 15004KT P6SM SKC
     FM290500 15004KT P6SM SKC=

USA.gov is the U.S. government's official web portal to all federal, state and local government web resources and services.